Location: Lavington
(51.2833°N, 1.9833°W)
Time: 09:24:09
(UTC+00:00)

Cosmos 1656 Rocket - Pass Details

Date: 01 June 2020
Orbit: 797 x 845 km, 71.1° (Epoch: 05 July)

Event Time Altitude Azimuth Distance (km) Brightness Sun altitude
Exits shadow 23:46:05 12° 224° (SW) 2,273 5.6 -16.4°
Maximum altitude 23:51:10 63° 304° (NW) 928 4.0 -16.4°
Drops below altitude 10° 23:56:42 10° 26° (NNE) 2,427 7.1 -16.5°
Sets 23:59:09 0° 29° (NNE) 3,355 7.9 -16.5°
